Regional Weather Roundup
Issued by NWS Sioux Falls, SD

Home | Current Version | Previous Version | Text Only | Print | Product List | Glossary On
Versions: 1 2 3 4 5 6 7 8 9 10 11 12 13 14 15 16 17 18 19 20 21 22 23 24 25 26 27 28 29 30 31 32 33 34 35 36 37 38 39 40 41 42 43 44 45 46 47 48 49 50
000
ASUS43 KFSD 270210
RWRFSD

WEATHER ROUNDUP FOR SE SOUTH DAKOTA/SW MINNESOTA/NW IOWA
NATIONAL WEATHER SERVICE SIOUX FALLS SD
900 PM CDT FRI MAY 26 2017

NOTE: "FAIR" INDICATES FEW OR NO CLOUDS BELOW 12,000 FEET WITH NO
SIGNIFICANT WEATHER AND OR OBSTRUCTIONS TO VISIBILITY.


SDZ038>040-050-052>070-270300-
SOUTHEAST SOUTH DAKOTA

CITY           SKY/WX    TMP DP  RH WIND       PRES   REMARKS
BROOKINGS      CLEAR     61  45  55 MISG      29.85R
CHAMBERLAIN    PTCLDY    64  45  49 CALM      29.89R
HURON          CLOUDY    62  45  53 CALM      29.85R
MADISON        FAIR      63  43  48 NW10      29.86R
MITCHELL       CLEAR     63  44  50 NW5       29.87R
SIOUX FALLS    PTCLDY    63  45  51 CALM      29.85R
WINNER         FAIR      64  45  49 N5        29.90R
YANKTON        CLOUDY    68  44  42 W5        29.88R
$$

MNZ071-072-080-081-089-090-097-098-270300-
SOUTHWEST MINNESOTA

CITY           SKY/WX    TMP DP  RH WIND       PRES   REMARKS
FAIRMONT       CLEAR     68  45  43 NW8       29.82R
JACKSON        CLEAR     64  45  48 CALM      29.84R
LUVERNE        CLEAR     63  37  39 W6        29.86R
MARSHALL       CLEAR     65  46  50 W8        29.82R
MONTEVIDEO     CLEAR     64  45  48 N5        29.81R
PIPESTONE      CLEAR     66  37  34 CALM      29.85R
REDWOOD FALLS  CLEAR     66  44  45 W6        29.79R
TRACY          CLEAR     67  45  45 W5        29.83R
WINDOM         CLEAR     64  45  48 W7        29.83R
WORTHINGTON    CLEAR     62  44  51 W10       29.86R
$$

IAZ001>003-012>014-020>022-031-032-NEZ013-014-SDZ071-270300-
NORTHWEST IOWA

CITY           SKY/WX    TMP DP  RH WIND       PRES   REMARKS
CHEROKEE       CLEAR     67  44  43 NW5       29.85R
DENISON        CLEAR     70  46  43 CALM      29.85R
ESTHERVILLE    CLEAR     64  51  62 W8        29.82R
LE MARS        CLEAR     66  45  45 W6        29.87R
ORANGE CITY    CLEAR     63  46  55 NW7       29.87R
SHELDON        CLEAR     68  41  37 NW8       29.84R
SIOUX CITY     CLEAR     65  47  52 NW7       29.85R
SPENCER        CLEAR     61  47  59 NW10      29.84R
STORM LAKE     CLEAR     70  43  37 NW9       29.84R
$$

ABBREVIATIONS USED IN REMARKS
   TC - TEMPERATURE IN CELSIUS
  WCI - WIND CHILL INDEX
   HX - HEAT INDEX
  VSB - VISIBILITY




USA.gov is the U.S. government's official web portal to all federal, state and local government web resources and services.